TimePST,TemperatureF,Dew PointF,Humidity,Sea Level PressureIn,VisibilityMPH,Wind Direction,Wind SpeedMPH,Gust SpeedMPH,PrecipitationIn,Events,Conditions,WindDirDegrees,DateUTC
12:56 AM,48.0,39.9,74,30.26,10.0,Calm,Calm,-,N/A,,Clear,0,2013-12-25 08:56:00
1:56 AM,46.0,36.0,68,30.26,10.0,West,4.6,-,N/A,,Clear,270,2013-12-25 09:56:00
2:56 AM,46.0,37.0,71,30.26,10.0,Calm,Calm,-,N/A,,Clear,0,2013-12-25 10:56:00
3:56 AM,44.1,37.0,76,30.25,10.0,Calm,Calm,-,N/A,,Clear,0,2013-12-25 11:56:00
4:56 AM,46.9,37.9,71,30.24,10.0,Calm,Calm,-,N/A,,Clear,0,2013-12-25 12:56:00
5:56 AM,46.0,39.9,79,30.25,10.0,SSE,4.6,-,N/A,,Clear,160,2013-12-25 13:56:00
6:56 AM,46.0,39.9,79,30.25,10.0,Calm,Calm,-,N/A,,Partly Cloudy,0,2013-12-25 14:56:00
7:56 AM,46.9,39.9,77,30.27,10.0,SSW,3.5,-,N/A,,Partly Cloudy,200,2013-12-25 15:56:00
8:56 AM,52.0,43.0,71,30.28,10.0,NNW,4.6,-,N/A,,Clear,340,2013-12-25 16:56:00
9:56 AM,53.1,44.1,71,30.29,10.0,Calm,Calm,-,N/A,,Clear,0,2013-12-25 17:56:00
10:56 AM,57.0,42.1,57,30.29,10.0,Calm,Calm,-,N/A,,Clear,0,2013-12-25 18:56:00
11:56 AM,60.1,39.0,46,30.27,10.0,Calm,Calm,-,N/A,,Clear,0,2013-12-25 19:56:00
12:56 PM,61.0,39.9,46,30.23,10.0,Calm,Calm,-,N/A,,Clear,0,2013-12-25 20:56:00
1:56 PM,63.0,39.9,43,30.21,10.0,Calm,Calm,-,N/A,,Clear,0,2013-12-25 21:56:00
2:56 PM,63.0,39.0,41,30.20,10.0,Calm,Calm,-,N/A,,Clear,0,2013-12-25 22:56:00
3:56 PM,60.1,39.9,47,30.21,10.0,Calm,Calm,-,N/A,,Clear,0,2013-12-25 23:56:00
4:56 PM,61.0,39.0,44,30.21,10.0,Calm,Calm,-,N/A,,Clear,0,2013-12-26 00:56:00
5:56 PM,59.0,39.9,49,30.21,10.0,South,3.5,-,N/A,,Clear,190,2013-12-26 01:56:00
6:56 PM,55.9,39.9,55,30.22,10.0,SSW,3.5,-,N/A,,Clear,200,2013-12-26 02:56:00
7:56 PM,55.0,43.0,64,30.24,9.0,NNE,3.5,-,N/A,,Clear,20,2013-12-26 03:56:00
8:56 PM,54.0,42.1,64,30.24,10.0,Calm,Calm,-,N/A,,Clear,0,2013-12-26 04:56:00
9:56 PM,51.1,41.0,68,30.25,10.0,Calm,Calm,-,N/A,,Clear,0,2013-12-26 05:56:00
10:56 PM,51.1,39.9,66,30.25,10.0,Calm,Calm,-,N/A,,Clear,0,2013-12-26 06:56:00
11:56 PM,48.0,39.0,71,30.25,10.0,Calm,Calm,-,N/A,,Clear,0,2013-12-26 07:56:00